Terug naar catalogus

STARLINK-35885

ActiefCommunicatieVLEO
NORAD 66890·PAYLOAD·🇺🇸 United States

Gelanceerd Dec 4, 2025 vanaf Vandenberg Space Force Base

Loading…

Volgende Passages (komende 24 uur)

TLE

VersSource: CelesTrak SupGP

Epoch: Sep 14, 2026, 23:12 UTC

1 66890C 25283N   26257.96715278  .00005056  00000+0  14934-3 0  2572
2 66890  53.1583 221.5688 0001340  89.6587 199.6987 15.34397179    18

Volg STARLINK-35885 in realtime met AllMySat

Download on the App Store